EZY56T EDDH-EKCH

Flight info

Callsign EZY56T
Flight time N/A
Altitude 23000
Route LUGEG3C LUGEG P605 GESKA/N0372F220 Z711 MONAK
Aircraft A320/M-SDE3FGHIRWY/LB1

Departure

Time 2026-05-06 14:04
Airport Hamburg Helmut Schmidt Airport (EDDH)

Arrival

Time N/A
Airport Copenhagen Kastrup Airport (EKCH)
Time Latitude Longitude Altitude Speed Heading
2026-05-06 13:35 53.62772 10.00271 44 ft 0 kts 63°
2026-05-06 13:46 53.62765 10.00249 44 ft 2 kts 62°
2026-05-06 13:46 53.62758 10.00224 41 ft 2 kts 62°
2026-05-06 13:47 53.62750 10.00200 41 ft 2 kts 58°
2026-05-06 13:47 53.62740 10.00177 41 ft 2 kts 31°
2026-05-06 13:47 53.62727 10.00174 40 ft 1 kts 329°
2026-05-06 13:47 53.62725 10.00176 39 ft 0 kts 333°
2026-05-06 13:49 53.62734 10.00168 39 ft 7 kts 333°
2026-05-06 13:49 53.62778 10.00130 44 ft 6 kts 333°
2026-05-06 13:49 53.62814 10.00097 45 ft 8 kts 328°
2026-05-06 13:50 53.62825 9.99991 45 ft 10 kts 237°
2026-05-06 13:50 53.62812 9.99971 44 ft 1 kts 217°
2026-05-06 13:50 53.62811 9.99970 44 ft 0 kts 217°
2026-05-06 13:51 53.62794 9.99950 46 ft 11 kts 213°
2026-05-06 13:52 53.62714 9.99871 44 ft 14 kts 210°
2026-05-06 13:52 53.62643 9.99777 44 ft 13 kts 246°
2026-05-06 13:52 53.62625 9.99631 44 ft 12 kts 261°
2026-05-06 13:52 53.62611 9.99500 44 ft 11 kts 259°
2026-05-06 13:53 53.62597 9.99386 45 ft 11 kts 258°
2026-05-06 13:53 53.62578 9.99214 42 ft 16 kts 260°
2026-05-06 13:53 53.62559 9.99040 45 ft 16 kts 258°
2026-05-06 13:53 53.62533 9.98813 46 ft 20 kts 259°
2026-05-06 13:54 53.62507 9.98587 45 ft 23 kts 258°
2026-05-06 13:54 53.62467 9.98249 45 ft 30 kts 259°
2026-05-06 13:54 53.62364 9.97955 44 ft 30 kts 232°
2026-05-06 13:54 53.62267 9.97757 44 ft 15 kts 229°
2026-05-06 13:55 53.62201 9.97623 43 ft 14 kts 232°
2026-05-06 13:55 53.62182 9.97478 43 ft 8 kts 287°
2026-05-06 13:55 53.62184 9.97470 43 ft 0 kts 291°
2026-05-06 13:56 53.62203 9.97422 43 ft 15 kts 310°
2026-05-06 13:56 53.62211 9.97408 44 ft 0 kts 319°
2026-05-06 14:02 53.62212 9.97407 44 ft 1 kts 319°
2026-05-06 14:02 53.62266 9.97365 43 ft 11 kts 350°
2026-05-06 14:02 53.62335 9.97403 43 ft 9 kts 49°
2026-05-06 14:02 53.62337 9.97407 43 ft 0 kts 49°
2026-05-06 14:03 53.62380 9.97494 44 ft 35 kts 50°
2026-05-06 14:03 53.62698 9.98133 48 ft 103 kts 50°
2026-05-06 14:04 53.63266 9.99282 166 ft 141 kts 50°
2026-05-06 14:04 53.63861 10.00503 908 ft 132 kts 51°
2026-05-06 14:04 53.64452 10.01753 1339 ft 144 kts 52°
2026-05-06 14:04 53.65119 10.03217 1477 ft 173 kts 52°
2026-05-06 14:05 53.65910 10.04899 1852 ft 192 kts 51°
2026-05-06 14:05 53.66758 10.06678 2606 ft 195 kts 52°
2026-05-06 14:05 53.67616 10.08475 3412 ft 198 kts 52°
2026-05-06 14:05 53.68491 10.10311 4161 ft 203 kts 53°
2026-05-06 14:06 53.69385 10.12192 4893 ft 208 kts 53°
2026-05-06 14:06 53.70300 10.14118 5605 ft 212 kts 53°
2026-05-06 14:06 53.71234 10.16087 6368 ft 217 kts 53°
2026-05-06 14:06 53.72204 10.18172 6836 ft 237 kts 53°
2026-05-06 14:07 53.73243 10.20458 7223 ft 259 kts 53°